Change the Weather History Date:

Saturday, October 13, 2012

  Actual Average Record
Temperature  
Mean Temperature 70 °F -  
Max Temperature 80 °F 73 °F 92 °F (2014)
Min Temperature 59 °F 53 °F 50 °F (2008)
Cooling Degree Days 4    
Growing Degree Days 20 (Base 50)    
Moisture  
Dew Point 63 °F    
Average Humidity 88    
Maximum Humidity 100    
Minimum Humidity 50    
Precipitation  
Precipitation 0.20 in 0.08 in - ()
Sea Level Pressure  
Sea Level Pressure 29.91 in    
Wind  
Wind Speed 4 mph ()    
Max Wind Speed 13 mph    
Max Gust Speed -    
Visibility 5.2 miles    
Events Rain , Thunderstorm    
Averages and records for this station are not official NWS values.
T = Trace of Precipitation, MM = Missing Value Source: Averaged Metar Reports

Daily Weather History Graph

Daily Weather History Graph

Search for Another Location

Airport or City:

Trip Planner

Search our weather history database for the weather conditions in past years. The results will help you decide how hot, cold, wet, or windy it might be!

Date:

Astronomy

Oct. 13, 2012 Rise Set
Actual Time 7:06 AM CEST 6:25 PM CEST
Civil Twilight 6:40 AM CEST 6:51 PM CEST
Nautical Twilight 6:10 AM CEST 7:22 PM CEST
Astronomical Twilight 5:39 AM CEST 7:52 PM CEST
Moon 4:39 AM CEST (10/13) 4:57 PM CEST (10/13)
Length of Visible Light 12h 11m
Length of Day
11h 18m
Waning Crescent, 6% of the Moon is Illuminated
Oct 13
Waning Crescent
Oct 15
New
Oct 22
First Quarter
Oct 29
Full
Nov 7
Last Quarter

Hourly Weather History & Observations

Time (CEST) Temp. Dew Point Humidity Pressure Visibility Wind Dir Wind Speed Gust Speed Precip Events Conditions
1:55 AM 60.8 °F 60.8 °F 100% 29.95 in 6.2 mi West 4.6 mph - N/A   Scattered Clouds
2:00 AM 60 °F 60 °F 100% 29.96 in 6 mi West 4.6 mph - -   Scattered Clouds
2:55 AM 59.0 °F 59.0 °F 100% 29.98 in 6.2 mi WNW 3.5 mph - N/A   Scattered Clouds
4:55 AM 60.8 °F 60.8 °F 100% 29.92 in 6.2 mi SSW 4.6 mph - N/A Rain Light Rain
5:00 AM 60 °F 60 °F 100% 29.94 in 6 mi SSW 4.6 mph - - Rain Light Rain
5:55 AM 60.8 °F 60.8 °F 100% 29.92 in 6.2 mi Calm Calm - N/A   Overcast
6:55 AM 60.8 °F 60.8 °F 100% 29.92 in 6.2 mi NNW 2.3 mph - N/A   Mostly Cloudy
7:55 AM 64.4 °F 64.4 °F 100% 29.95 in 6.2 mi West 3.5 mph - N/A   Scattered Clouds
8:00 AM 64 °F 64 °F 100% 29.97 in 6 mi West 3.5 mph - -   Partly Cloudy
8:55 AM 66.2 °F 64.4 °F 94% 29.98 in 6.2 mi Calm Calm - N/A   Mostly Cloudy
9:55 AM 68.0 °F 66.2 °F 94% 29.95 in 5.0 mi SW 2.3 mph - N/A   Mostly Cloudy
10:55 AM 68.0 °F 68.0 °F 100% 29.98 in 4.3 mi WNW 6.9 mph - N/A   Mostly Cloudy
11:00 AM 69 °F 69 °F 99% 29.99 in 4 mi WNW 6.9 mph - - Rain Light Rain
11:55 AM 73.4 °F 68.0 °F 83% 29.92 in 5.0 mi West 6.9 mph - N/A   Light Drizzle
12:55 PM 77.0 °F 68.0 °F 74% 29.89 in 6.2 mi WNW 8.1 mph - N/A   Scattered Clouds
1:55 PM 78.8 °F 64.4 °F 61% 29.89 in 6.2 mi WNW 10.4 mph - N/A   Scattered Clouds
2:00 PM 80 °F 64 °F 50% 29.91 in 6 mi WNW 10.4 mph - -   Partly Cloudy
2:55 PM 78.8 °F 60.8 °F 54% 29.89 in 6.2 mi West 8.1 mph - N/A   Scattered Clouds
3:32 PM 78.8 °F 60.8 °F 54% 29.89 in 5.0 mi West 8.1 mph - N/A Thunderstorm Thunderstorm
3:55 PM 78.8 °F 60.8 °F 54% 29.89 in 4.3 mi West 12.7 mph - N/A Thunderstorm Thunderstorm
4:55 PM 75.2 °F 62.6 °F 65% 29.89 in 3.1 mi West 10.4 mph - N/A Rain , Thunderstorm Light Thunderstorms and Rain
5:00 PM 76 °F 63 °F 55% 29.91 in 3 mi West 10.4 mph - - Rain , Thunderstorm Thunderstorms and Rain
5:16 PM 68.0 °F 68.0 °F 100% 29.89 in 1.9 mi WSW 4.6 mph - N/A Rain , Thunderstorm Thunderstorms and Rain
5:55 PM 68.0 °F 68.0 °F 100% 29.89 in 1.9 mi NNW 2.3 mph - N/A Rain , Thunderstorm Thunderstorms and Rain
6:55 PM 66.2 °F 66.2 °F 100% 29.86 in 3.1 mi South 3.5 mph - N/A Rain , Thunderstorm Light Thunderstorms and Rain
7:55 PM 64.4 °F 64.4 °F 100% 29.86 in 3.7 mi WSW 2.3 mph - N/A Rain Light Rain
8:00 PM 65 °F 65 °F 100% 29.87 in 4 mi WSW 2.3 mph - - Rain Light Rain
8:55 PM 64.4 °F 62.6 °F 94% 29.86 in 6.2 mi Calm Calm - N/A   Scattered Clouds
9:55 PM 64.4 °F 62.6 °F 94% 29.86 in 6.2 mi WNW 4.6 mph - N/A   Scattered Clouds
10:55 PM 60.8 °F 60.8 °F 100% 29.86 in 6.2 mi SW 2.3 mph - N/A   Scattered Clouds
11:00 PM 62 °F 61 °F 95% 29.88 in 6 mi SW 2.3 mph - -   Partly Cloudy
11:55 PM 62.6 °F 60.8 °F 94% 29.89 in 6.2 mi West 4.6 mph - N/A   Scattered Clouds